Nogales, AZ

9:24 PM MST on September 19, 2017 (GMT -0700)
Nogales International

Weather History for KOLS - January, 2013

Change the Weather History Date:

Friday, January 11, 2013

  Actual Average (KFHU) Record (KFHU)
Temperature  
Mean Temperature 36 °F -  
Max Temperature 48 °F 59 °F 75 °F (1990)
Min Temperature 24 °F 37 °F 26 °F (1987)
Degree Days  
Heating Degree Days 28    
Moisture  
Dew Point 19 °F    
Average Humidity 49    
Maximum Humidity 71    
Minimum Humidity 16    
Precipitation  
Precipitation 0.00 in - - ()
Sea Level Pressure  
Sea Level Pressure 29.92 in    
Wind  
Wind Speed 12 mph (West)    
Max Wind Speed 22 mph    
Max Gust Speed 29 mph    
Visibility 10 miles    
Events      
Averages and records for this station are not official NWS values.
T = Trace of Precipitation, MM = Missing Value Source: NWS Daily Summary

Daily Weather History Graph

Daily Weather History Graph

Search for Another Location

Airport or City:

Trip Planner

Search our weather history database for the weather conditions in past years. The results will help you decide how hot, cold, wet, or windy it might be!

Date:

Astronomy

Jan. 11, 2013 Rise Set
Actual Time 7:23 AM MST 5:39 PM MST
Civil Twilight 6:57 AM MST 6:06 PM MST
Nautical Twilight 6:27 AM MST 6:36 PM MST
Astronomical Twilight 5:57 AM MST 7:05 PM MST
Moon 7:02 AM MST (1/11) 5:57 PM MST (1/11)
Length of Visible Light 11h 09m
Length of Day
10h 16m
Waning Crescent, 0% of the Moon is Illuminated
Jan 11
Waning Crescent
Jan 11
New
Jan 18
First Quarter
Jan 26
Full
Feb 3
Last Quarter

Hourly Weather History & Observations

Time (MST) Temp. Windchill Dew Point Humidity Pressure Visibility Wind Dir Wind Speed Gust Speed Precip Events Conditions
12:54 AM 48.0 °F - 30.9 °F 52% 29.81 in 10.0 mi SW 21.9 mph 28.8 mph N/A   Scattered Clouds
1:45 AM 46.9 °F - 36.0 °F 66% 29.93 in 10.0 mi SSW 13.8 mph 20.7 mph N/A   Overcast
1:54 AM 46.9 °F - 36.0 °F 66% 29.82 in 10.0 mi SSW 13.8 mph 23.0 mph N/A   Overcast
2:11 AM 46.9 °F - 36.0 °F 66% 29.93 in 10.0 mi SSW 19.6 mph 25.3 mph N/A   Overcast
2:29 AM 46.0 °F 39.3 °F 37.0 °F 71% 29.93 in 10.0 mi SSW 16.1 mph 25.3 mph N/A   Overcast
2:36 AM 46.0 °F 39.3 °F 37.0 °F 71% 29.94 in 10.0 mi SSW 16.1 mph - N/A   Overcast
2:54 AM 46.0 °F 38.8 °F 37.0 °F 71% 29.83 in 10.0 mi SW 18.4 mph 21.9 mph N/A   Overcast
3:24 AM 39.9 °F 31.8 °F 30.9 °F 70% 29.96 in 10.0 mi NW 15.0 mph 21.9 mph N/A   Overcast
3:40 AM 39.0 °F 31.8 °F 27.0 °F 62% 29.97 in 10.0 mi WNW 11.5 mph - N/A   Overcast
3:54 AM 39.0 °F 32.3 °F 27.0 °F 62% 29.88 in 10.0 mi NNW 10.4 mph 17.3 mph N/A   Overcast
4:54 AM 37.0 °F 31.6 °F 23.0 °F 57% 29.90 in 10.0 mi NW 6.9 mph - N/A   Overcast
5:54 AM 35.1 °F - 21.0 °F 57% 29.93 in 10.0 mi Calm Calm - N/A   Clear
6:54 AM 32.0 °F 26.4 °F 19.9 °F 61% 29.95 in 10.0 mi NNW 5.8 mph - N/A   Clear
7:54 AM 28.9 °F 25.2 °F 19.0 °F 67% 29.98 in 10.0 mi ENE 3.5 mph - N/A   Clear
8:54 AM 37.0 °F - 19.9 °F 50% 29.97 in 10.0 mi Calm Calm - N/A   Clear
9:54 AM 37.9 °F 35.5 °F 18.0 °F 45% 29.98 in 10.0 mi Variable 3.5 mph - N/A   Clear
10:54 AM 42.1 °F 38.4 °F 14.0 °F 32% 29.96 in 10.0 mi Variable 5.8 mph - N/A   Clear
11:54 AM 43.0 °F 39.5 °F 3.9 °F 20% 29.94 in 10.0 mi NNW 5.8 mph - N/A   Clear
12:54 PM 44.1 °F 39.5 °F 3.9 °F 19% 29.90 in 10.0 mi West 8.1 mph - N/A   Clear
1:54 PM 45.0 °F - 3.9 °F 18% 29.88 in 10.0 mi North - - N/A   Clear
2:54 PM 46.0 °F 43.1 °F 1.9 °F 16% 29.86 in 10.0 mi NW 5.8 mph - N/A   Clear
3:54 PM 45.0 °F 41.8 °F 1.9 °F 17% 29.87 in 10.0 mi Variable 5.8 mph - N/A   Clear
4:54 PM 44.1 °F 39.5 °F 3.0 °F 18% 29.87 in 10.0 mi WNW 8.1 mph - N/A   Clear
5:54 PM 39.9 °F 36.7 °F 9.0 °F 28% 29.90 in 10.0 mi WNW 4.6 mph - N/A   Clear
6:54 PM 36.0 °F - 10.9 °F 36% 29.92 in 10.0 mi Calm Calm - N/A   Clear
7:54 PM 30.0 °F - 12.0 °F 47% 29.95 in 10.0 mi Calm Calm - N/A   Clear
8:54 PM 27.0 °F - 12.9 °F 56% 29.94 in 10.0 mi Calm Calm - N/A   Clear
9:54 PM 25.0 °F 20.7 °F 12.9 °F 60% 29.96 in 10.0 mi ESE 3.5 mph - N/A   Clear
10:54 PM 25.0 °F 20.7 °F 12.0 °F 58% 29.95 in 10.0 mi ESE 3.5 mph - N/A   Clear
11:54 PM 24.1 °F 19.7 °F 12.0 °F 60% 29.94 in 10.0 mi ENE 3.5 mph - N/A   Clear